Hourly Data Report for October 13, 2017

All times are specified in Local Standard Time (LST). Add 1 hour to adjust for Daylight Saving Time where and when it is observed.

PANGNIRTUNG
NUNAVUT

66°08'36.300" N
65°42'40.500" W
22.60 m
2403049
71826
WXP

Download Data

Hourly Data (October 2017)
Hourly Data Report for October 13, 2017
Temp Definition
°C
Dew Point Temp Definition
°C
Rel Hum Definition
%
Wind Dir Definition
10's deg

Wind Spd Definition
km/h
Visibility Definition
km
Stn Press Definition
kPa
Hmdx Definition


Wind Chill Definition


Weather Definition


TIME
00:00 -6.6 -10.9 71 28 8   101.17   -10 LegendNANA
01:00 -6.2 -10.7 70 27 8   101.20   -10 LegendNANA
02:00 -5.5 -10.7 67 28 10   101.21   -10 LegendNANA
03:00 -6.2 -10.0 75 29 14   101.22   -12 LegendNANA
04:00 -6.0 -10.9 68 30 11   101.20   -11 LegendNANA
05:00 -6.0 -11.5 65 22 8   101.17   -10 LegendNANA
06:00 -6.7 -11.1 71 22 8   101.16   -11 LegendNANA
07:00 -7.7 -12.1 71 16 4   101.19   -10 LegendNANA
08:00 -7.8 -12.8 67 15 4   101.17   -10 LegendNANA
09:00 -7.5 -12.5 67 13 3   101.12   -9 LegendNANA
10:00 -7.4 -12.5 67 13 8   101.07   -11 LegendNANA
11:00 -7.6 -12.3 69 23 2   101.05   -9 LegendNANA
12:00 -6.7 -11.5 69 9 14   101.00   -12 LegendNANA
13:00 -7.2 -12.4 67 10 8   100.97   -11 LegendNANA
14:00 -6.9 -11.9 68 25 3   100.96   -8 LegendNANA
15:00 -7.3 -12.9 64 22 4   100.89   -9 LegendNANA
16:00 -7.3 -12.6 66 12 10   100.84   -12 LegendNANA
17:00 -6.7 -13.2 60 11 3   100.80   -8 LegendNANA
18:00 -6.8 -12.4 64 12 5   100.74   -9 LegendNANA
19:00 -7.9 -12.3 71 8 6   100.66   -11 LegendNANA
20:00 -6.4 -10.7 72 8 7   100.55   -10 LegendNANA
21:00 -5.4 -11.5 62 7 13   100.45   -11 LegendNANA
22:00 -5.3 -11.9 60 10 30   100.35   -13 LegendNANA
23:00 -5.4 -11.1 64 9 24   100.26   -13 LegendNANA

Notes on Data Quality.

Legend

  • E = Estimated
  • M = Missing
  • NA = Not Available
  • ‡ = Partner data that is not subject to review by the National Climate Archives
Date modified: